Mobile, AL

5:29 AM CDT on June 16, 2019 (GMT -0500)
Mobile Regional

Weather History for KMOB - May, 2019

Change the Weather History Date:

Saturday, May 18, 2019

  Actual Average Record
Temperature  
Mean Temperature 78 °F 75 °F  
Max Temperature 88 °F 85 °F 96 °F (1962)
Min Temperature 68 °F 64 °F 44 °F (2011)
Cooling Degree Days 13 10  
Month to date cooling degree days 178 140  
Year to date cooling degree days 415 299  
Growing Degree Days 28 (Base 50)    
Moisture  
Dew Point 69 °F    
Average Humidity 73    
Maximum Humidity 100    
Minimum Humidity 46    
Precipitation  
Precipitation 0.00 in 0.17 in 6.30 in (2003)
Month to date precipitation 3.81 2.90  
Year to date precipitation 21.23 24.60  
Sea Level Pressure  
Sea Level Pressure 29.97 in    
Wind  
Wind Speed 9 mph (SSE)    
Max Wind Speed 20 mph    
Max Gust Speed 25 mph    
Visibility 10 miles    
Events      
T = Trace of Precipitation, MM = Missing Value Source: NWS Daily Summary

Daily Weather History Graph

Daily Weather History Graph

Search for Another Location

Airport or City:

Astronomy

May. 18, 2019 Rise Set
Actual Time 5:56 AM CDT 7:42 PM CDT
Civil Twilight 5:29 AM CDT 8:09 PM CDT
Nautical Twilight 4:58 AM CDT 8:41 PM CDT
Astronomical Twilight 4:24 AM CDT 9:15 PM CDT
Moon 7:41 PM CDT (5/18) 5:56 AM CDT (5/18)
Length of Visible Light 14h 39m
Length of Day
13h 46m
Full, 100% of the Moon is Illuminated
May 18
Full
May 18
Full
May 26
Last Quarter
Jun 3
New
Jun 10
First Quarter

Hourly Weather History & Observations

Time (CDT) Temp. Heat Index Dew Point Humidity Pressure Visibility Wind Dir Wind Speed Gust Speed Precip Events Conditions
12:56 AM 69.1 °F - 68.0 °F 96% 29.98 in 10.0 mi Calm Calm - N/A   Clear
1:56 AM 69.1 °F - 68.0 °F 96% 29.97 in 10.0 mi Calm Calm - N/A   Clear
2:56 AM 70.0 °F - 68.0 °F 93% 29.96 in 10.0 mi Calm Calm - N/A   Clear
3:56 AM 70.0 °F - 69.1 °F 97% 29.97 in 10.0 mi SE 4.6 mph - N/A   Clear
4:56 AM 71.1 °F - 70.0 °F 96% 29.96 in 10.0 mi SE 5.8 mph - N/A   Clear
5:56 AM 70.0 °F - 69.1 °F 97% 29.97 in 9.0 mi SE 4.6 mph - N/A   Partly Cloudy
6:56 AM 73.0 °F - 72.0 °F 96% 29.98 in 9.0 mi SE 4.6 mph - N/A   Partly Cloudy
7:56 AM 77.0 °F - 72.0 °F 84% 29.99 in 10.0 mi South 6.9 mph - N/A   Partly Cloudy
8:56 AM 82.0 °F 86.3 °F 71.1 °F 69% 30.01 in 10.0 mi SSE 11.5 mph - N/A   Scattered Clouds
9:33 AM - - - N/A% - - North - - N/A   Unknown
9:56 AM 84.0 °F 86.5 °F 66.9 °F 56% 30.01 in 10.0 mi South 15.0 mph - N/A   Partly Cloudy
10:56 AM 86.0 °F 87.3 °F 64.0 °F 48% 30.00 in 10.0 mi South 12.7 mph - N/A   Partly Cloudy
11:56 AM 87.1 °F 88.9 °F 64.9 °F 48% 30.00 in 10.0 mi South 10.4 mph 19.6 mph N/A   Scattered Clouds
12:56 PM 87.1 °F 90.6 °F 68.0 °F 53% 29.98 in 10.0 mi SSE 9.2 mph - N/A   Scattered Clouds
1:56 PM 88.0 °F 91.4 °F 68.0 °F 51% 29.97 in 10.0 mi South 13.8 mph 21.9 mph N/A   Scattered Clouds
2:56 PM 87.1 °F 92.0 °F 70.0 °F 57% 29.96 in 10.0 mi South 12.7 mph - N/A   Scattered Clouds
3:56 PM 84.9 °F 89.4 °F 70.0 °F 61% 29.96 in 10.0 mi SSE 13.8 mph - N/A   Scattered Clouds
4:56 PM 84.0 °F 87.8 °F 69.1 °F 61% 29.96 in 10.0 mi SSE 13.8 mph - N/A   Scattered Clouds
5:56 PM 82.0 °F 85.5 °F 69.1 °F 65% 29.95 in 10.0 mi SSE 13.8 mph - N/A   Partly Cloudy
6:56 PM 80.1 °F 82.9 °F 69.1 °F 69% 29.94 in 10.0 mi SSE 16.1 mph - N/A   Partly Cloudy
7:56 PM 78.1 °F - 69.1 °F 74% 29.94 in 10.0 mi SSE 11.5 mph - N/A   Partly Cloudy
8:56 PM 75.9 °F - 70.0 °F 82% 29.94 in 10.0 mi SE 9.2 mph - N/A   Clear
9:56 PM 75.0 °F - 71.1 °F 87% 29.96 in 10.0 mi SE 6.9 mph - N/A   Clear
10:56 PM 75.0 °F - 71.1 °F 87% 29.96 in 10.0 mi SE 6.9 mph - N/A   Clear
11:56 PM 75.0 °F - 71.1 °F 87% 29.96 in 10.0 mi SSE 8.1 mph - N/A   Clear